{"data":{"norad_id":53711,"epoch":"2026-05-25T01:03:55.087776Z","epoch_age_seconds":71170,"freshness":"FRESH","line1":"1 53711U 22107M   26145.04438759  .00002018  00000+0  14489-3 0  9996","line2":"2 53711  53.2137 266.1533 0001465  91.6951 268.4209 15.08830732206009","mean_motion":15.08830732,"eccentricity":0.0001465,"inclination_deg":53.2137,"raan_deg":266.1533,"arg_perigee_deg":91.6951,"mean_anomaly_deg":268.4209,"bstar":0.00014489,"rev_number":20600,"period_min":95.438140903403,"perigee_km":538.75824405025,"apogee_km":540.78519130453,"semimajor_km":6917.9087176774,"source":"CELESTRAK","updated_at":"2026-05-25T13:38:17.533605Z"}}